Weather History for Estevan, SK

Change the Weather History Date:

Tuesday, November 19, 2013

  Actual Average Record
Temperature  
Mean Temperature 27 °F -  
Max Temperature 39 °F 29 °F 46 °F (2002)
Min Temperature 15 °F 11 °F -9 °F (2010)
Degree Days  
Heating Degree Days 38    
Moisture  
Dew Point 22 °F    
Average Humidity 88    
Maximum Humidity 100    
Minimum Humidity 75    
Precipitation  
Precipitation 0.00 in - - ()
Sea Level Pressure  
Sea Level Pressure 29.71 in    
Wind  
Wind Speed 9 mph ()    
Max Wind Speed 17 mph    
Max Gust Speed 23 mph    
Visibility 15.0 miles    
Events      
Averages and records for this station are not official NWS values.
T = Trace of Precipitation, MM = Missing Value Source: Averaged Metar Reports

Daily Weather History Graph

Daily Weather History Graph

Search for Another Location

Airport:

Trip Planner

Search our weather history database for the weather conditions in past years. The results will help you decide how hot, cold, wet, or windy it might be!

Date:

Astronomy

Nov. 19, 2013 Rise Set
Actual Time 8:08 AM CST 5:05 PM CST
Civil Twilight 7:33 AM CST 5:40 PM CST
Nautical Twilight 6:54 AM CST 6:19 PM CST
Astronomical Twilight 6:16 AM CST 6:57 PM CST
Moon 6:56 PM CST (11/19) 9:51 AM CST (11/19)
Length of Visible Light 10h 07m
Length of Day
8h 56m
Waning Gibbous, 96% of the Moon is Illuminated
Nov 19
Waning Gibbous
Nov 25
Last Quarter
Dec 2
New
Dec 9
First Quarter
Dec 17
Full

Hourly Weather History & Observations

Time (CST) Temp. Windchill Dew Point Humidity Pressure Visibility Wind Dir Wind Speed Gust Speed Precip Events Conditions
12:00 AM 20 °F - 19 °F 95% 29.91 in 15 mi East 9.2 mph - -   Mostly Cloudy
12:00 AM 19.4 °F 8.6 °F 19.4 °F 100% 29.91 in 15.0 mi East 9.2 mph - N/A   Mostly Cloudy
1:00 AM 19.4 °F 8.6 °F 17.6 °F 93% 29.89 in 15.0 mi East 9.2 mph - N/A   Overcast
2:00 AM 19.4 °F 7.9 °F 19.4 °F 100% 29.86 in 15.0 mi East 10.4 mph - N/A   Overcast
3:00 AM 21.2 °F 11.7 °F 19.4 °F 93% 29.83 in 15.0 mi East 8.1 mph - N/A   Overcast
4:00 AM 21.2 °F 10.9 °F 19.4 °F 93% 29.81 in 15.0 mi ESE 9.2 mph - N/A   Overcast
5:00 AM 23.0 °F 12.4 °F 21.2 °F 93% 29.78 in 15.0 mi East 10.4 mph - N/A   Overcast
6:00 AM 23 °F - 22 °F 93% 29.75 in 15 mi East 9.2 mph - -   Overcast
6:00 AM 23.0 °F 13.1 °F 21.2 °F 93% 29.75 in 15.0 mi ESE 9.2 mph - N/A   Overcast
7:00 AM 24.8 °F 14.6 °F 23.0 °F 93% 29.71 in 15.0 mi East 10.4 mph - N/A   Overcast
8:00 AM 26.6 °F 19.1 °F 24.8 °F 93% 29.68 in 15.0 mi East 6.9 mph - N/A   Overcast
9:00 AM 28.4 °F 21.2 °F 26.6 °F 93% 29.65 in 15.0 mi East 6.9 mph - N/A   Overcast
10:00 AM 30.2 °F 21.9 °F 26.6 °F 86% 29.64 in 15.0 mi ESE 9.2 mph - N/A   Overcast
11:00 AM 32.0 °F 26.4 °F 28.4 °F 87% 29.62 in 15.0 mi ESE 5.8 mph - N/A   Overcast
12:00 PM 34 °F - 31 °F 83% 29.58 in 15 mi SSE 4.6 mph - -   Mostly Cloudy
12:00 PM 33.8 °F 28.6 °F 30.2 °F 87% 29.58 in 15.0 mi SE 5.8 mph - N/A   Mostly Cloudy
1:00 PM 37.4 °F 32.8 °F 32.0 °F 81% 29.56 in 15.0 mi SSE 5.8 mph - N/A   Mostly Cloudy
2:00 PM 37.4 °F 34.9 °F 32.0 °F 81% 29.56 in 15.0 mi NNW 3.5 mph - N/A   Partly Cloudy
3:00 PM 39.2 °F 33.6 °F 32.0 °F 75% 29.56 in 15.0 mi NW 8.1 mph - N/A   Partly Cloudy
4:00 PM 30.2 °F 19.3 °F 26.6 °F 86% 29.57 in 15.0 mi NNW 15.0 mph - N/A   Mostly Cloudy
5:00 PM 24.8 °F 11.9 °F 21.2 °F 86% 29.62 in 15.0 mi WNW 16.1 mph - N/A   Partly Cloudy
6:00 PM 20 °F - 17 °F 85% 29.67 in 15 mi NW 16.1 mph - -   Scattered Clouds
6:00 PM 21.2 °F 7.3 °F 17.6 °F 86% 29.67 in 15.0 mi NW 16.1 mph - N/A   Partly Cloudy
7:00 PM 19.4 °F 4.5 °F 15.8 °F 86% 29.69 in 15.0 mi NW 17.3 mph - N/A   Partly Cloudy
8:00 PM 17.6 °F 3.2 °F 14.0 °F 86% 29.71 in 15.0 mi WNW 15.0 mph - N/A   Partly Cloudy
9:00 PM 17.6 °F 2.7 °F 12.2 °F 79% 29.74 in 15.0 mi NW 16.1 mph - N/A   Partly Cloudy
10:00 PM 15.8 °F -0.2 °F 12.2 °F 86% 29.78 in 15.0 mi WNW 17.3 mph 23.0 mph N/A   Mostly Cloudy
11:00 PM 15.8 °F -0.2 °F 10.4 °F 79% 29.81 in 15.0 mi NW 17.3 mph 23.0 mph N/A   Overcast